Time,TemperatureF,DewpointF,PressureIn,WindDirection,WindDirectionDegrees,WindSpeedMPH,WindSpeedGustMPH,Humidity,HourlyPrecipIn,Conditions,Clouds,dailyrainin,SoftwareType,DateUTC
2013-08-13 00:00:00,81.6,42.4,30.00,WNW,292,3.9,3.9,24,-99.99,,,-99.99,tws,2013-08-13 07:00:00,
2013-08-13 00:10:00,81.6,42.0,30.00,NW,315,3.8,4.1,24,-99.99,,,-99.99,tws,2013-08-13 07:10:00,
2013-08-13 00:20:00,81.5,42.5,30.00,NW,315,3.7,4.4,24,-99.99,,,-99.99,tws,2013-08-13 07:20:00,
2013-08-13 00:30:00,81.2,42.6,30.00,NW,315,3.7,4.1,25,-99.99,,,-99.99,tws,2013-08-13 07:30:00,
2013-08-13 00:40:00,80.9,42.8,30.00,WNW,292,3.6,4.1,25,-99.99,,,-99.99,tws,2013-08-13 07:40:00,
2013-08-13 00:50:00,80.6,42.7,30.00,NW,315,3.9,4.6,25,-99.99,,,-99.99,tws,2013-08-13 07:50:00,
2013-08-13 01:00:00,80.2,42.5,30.00,NW,315,4.0,4.8,25,-99.99,,,-99.99,tws,2013-08-13 08:00:00,
2013-08-13 01:10:00,80.0,42.2,30.00,NW,315,4.3,5.3,25,-99.99,,,-99.99,tws,2013-08-13 08:10:00,
2013-08-13 01:20:00,79.9,42.3,30.01,NW,315,5.1,5.8,25,-99.99,,,-99.99,tws,2013-08-13 08:20:00,
2013-08-13 01:30:00,79.7,41.5,30.01,NW,315,4.7,5.3,25,-99.99,,,-99.99,tws,2013-08-13 08:30:00,
2013-08-13 01:40:00,79.5,41.0,30.00,NNW,337,5.1,5.8,24,-99.99,,,-99.99,tws,2013-08-13 08:40:00,
2013-08-13 01:50:00,79.5,41.8,30.01,WNW,292,4.7,5.3,25,-99.99,,,-99.99,tws,2013-08-13 08:50:00,
2013-08-13 02:00:00,79.4,42.3,30.00,WNW,292,5.0,6.3,26,-99.99,,,-99.99,tws,2013-08-13 09:00:00,
2013-08-13 02:10:00,79.3,41.9,30.00,NW,315,4.2,4.9,26,-99.99,,,-99.99,tws,2013-08-13 09:10:00,
2013-08-13 02:20:00,79.1,42.0,30.00,West,270,3.4,4.1,26,-99.99,,,-99.99,tws,2013-08-13 09:20:00,
2013-08-13 02:30:00,78.7,41.8,30.00,North,0,3.5,4.7,26,-99.99,,,-99.99,tws,2013-08-13 09:30:00,
2013-08-13 02:40:00,78.5,42.0,30.00,WNW,292,4.1,4.7,26,-99.99,,,-99.99,tws,2013-08-13 09:40:00,
2013-08-13 02:50:00,78.4,41.2,30.01,WNW,292,4.3,5.0,26,-99.99,,,-99.99,tws,2013-08-13 09:50:00,
2013-08-13 03:00:00,78.4,40.7,29.99,NW,315,4.6,5.0,25,-99.99,,,-99.99,tws,2013-08-13 10:00:00,
2013-08-13 03:10:00,78.4,41.2,29.98,NNW,337,4.9,5.9,26,-99.99,,,-99.99,tws,2013-08-13 10:10:00,
2013-08-13 03:20:00,78.4,41.4,29.99,NW,315,4.6,5.1,26,-99.99,,,-99.99,tws,2013-08-13 10:20:00,
2013-08-13 03:30:00,78.4,41.6,30.00,NW,315,4.4,4.9,26,-99.99,,,-99.99,tws,2013-08-13 10:30:00,
2013-08-13 03:40:00,78.3,41.4,29.99,NW,315,4.2,4.6,26,-99.99,,,-99.99,tws,2013-08-13 10:40:00,
2013-08-13 03:50:00,78.2,41.7,29.99,NW,315,4.1,4.4,26,-99.99,,,-99.99,tws,2013-08-13 10:50:00,
2013-08-13 04:00:00,77.9,40.9,30.00,NW,315,5.2,6.2,26,-99.99,,,-99.99,tws,2013-08-13 11:00:00,
2013-08-13 04:10:00,77.9,40.6,29.98,NW,315,4.7,5.4,25,-99.99,,,-99.99,tws,2013-08-13 11:10:00,
2013-08-13 04:20:00,77.9,41.1,29.99,NW,315,4.7,5.4,26,-99.99,,,-99.99,tws,2013-08-13 11:20:00,
2013-08-13 04:30:00,78.0,41.2,29.99,NW,315,4.5,5.4,26,-99.99,,,-99.99,tws,2013-08-13 11:30:00,
2013-08-13 04:40:00,77.8,40.9,29.99,NW,315,4.4,5.1,26,-99.99,,,-99.99,tws,2013-08-13 11:40:00,
2013-08-13 04:50:00,77.7,40.7,30.00,NW,315,4.0,4.4,26,-99.99,,,-99.99,tws,2013-08-13 11:50:00,
2013-08-13 05:00:00,77.5,40.2,30.00,NW,315,3.3,4.2,25,-99.99,,,-99.99,tws,2013-08-13 12:00:00,
2013-08-13 05:10:00,77.0,39.7,30.00,NE,45,2.2,3.4,25,-99.99,,,-99.99,tws,2013-08-13 12:10:00,
2013-08-13 05:20:00,76.4,40.2,30.01,ENE,67,3.2,3.7,26,-99.99,,,-99.99,tws,2013-08-13 12:20:00,
2013-08-13 05:30:00,75.6,40.5,30.01,ENE,67,2.6,3.7,27,-99.99,,,-99.99,tws,2013-08-13 12:30:00,
2013-08-13 05:40:00,75.0,40.7,30.02,NE,45,1.5,3.3,28,-99.99,,,-99.99,tws,2013-08-13 12:40:00,
2013-08-13 05:50:00,74.5,41.0,30.02,SE,135,1.4,2.7,29,-99.99,,,-99.99,tws,2013-08-13 12:50:00,
2013-08-13 06:00:00,74.3,40.7,30.03,East,90,0.3,1.7,29,-99.99,,,-99.99,tws,2013-08-13 13:00:00,
2013-08-13 06:10:00,74.3,42.8,30.03,SW,225,1.0,1.5,31,-99.99,,,-99.99,tws,2013-08-13 13:10:00,
2013-08-13 06:20:00,74.4,44.6,30.03,SW,225,2.0,2.2,34,-99.99,,,-99.99,tws,2013-08-13 13:20:00,
2013-08-13 06:30:00,74.4,45.1,30.03,NNW,337,0.9,2.0,34,-99.99,,,-99.99,tws,2013-08-13 13:30:00,
2013-08-13 06:40:00,74.1,45.9,30.05,NW,315,0.0,0.0,36,-99.99,,,-99.99,tws,2013-08-13 13:40:00,
2013-08-13 06:50:00,73.7,47.5,30.04,NE,45,0.0,0.0,38,-99.99,,,-99.99,tws,2013-08-13 13:50:00,
2013-08-13 07:00:00,73.4,48.5,30.03,NW,315,1.1,2.7,40,-99.99,,,-99.99,tws,2013-08-13 14:00:00,
2013-08-13 07:10:00,73.1,48.7,30.04,NW,315,1.1,3.0,41,-99.99,,,-99.99,tws,2013-08-13 14:10:00,
2013-08-13 07:20:00,72.9,49.0,30.05,NW,315,1.5,2.5,42,-99.99,,,-99.99,tws,2013-08-13 14:20:00,
2013-08-13 07:30:00,72.9,49.6,30.05,NW,315,1.0,2.0,43,-99.99,,,-99.99,tws,2013-08-13 14:30:00,
2013-08-13 07:40:00,73.3,50.0,30.06,NW,315,0.7,2.6,43,-99.99,,,-99.99,tws,2013-08-13 14:40:00,
2013-08-13 07:50:00,73.9,50.7,30.06,NNW,337,1.6,2.4,43,-99.99,,,-99.99,tws,2013-08-13 14:50:00,
2013-08-13 08:00:00,74.7,50.7,30.06,NNE,22,0.8,1.9,42,-99.99,,,-99.99,tws,2013-08-13 15:00:00,
2013-08-13 08:10:00,75.9,51.0,30.06,NNW,337,0.5,1.5,41,-99.99,,,-99.99,tws,2013-08-13 15:10:00,
2013-08-13 08:20:00,77.2,50.3,30.05,East,90,1.1,1.7,38,-99.99,,,-99.99,tws,2013-08-13 15:20:00,
2013-08-13 08:30:00,78.5,50.3,30.05,East,90,2.3,3.3,36,-99.99,,,-99.99,tws,2013-08-13 15:30:00,
2013-08-13 08:40:00,80.1,50.0,30.05,ENE,67,2.3,3.1,34,-99.99,,,-99.99,tws,2013-08-13 15:40:00,
2013-08-13 08:50:00,81.9,48.5,30.05,East,90,2.4,3.5,30,-99.99,,,-99.99,tws,2013-08-13 15:50:00,
2013-08-13 09:00:00,83.2,47.3,30.04,SSE,157,2.5,3.8,28,-99.99,,,-99.99,tws,2013-08-13 16:00:00,
2013-08-13 09:10:00,84.1,48.0,30.05,NE,45,2.3,2.9,27,-99.99,,,-99.99,tws,2013-08-13 16:10:00,
2013-08-13 09:20:00,85.0,48.6,30.04,ESE,112,1.5,2.2,27,-99.99,,,-99.99,tws,2013-08-13 16:20:00,
2013-08-13 09:30:00,85.9,49.0,30.04,ENE,67,1.6,2.9,27,-99.99,,,-99.99,tws,2013-08-13 16:30:00,
2013-08-13 09:40:00,86.9,48.9,30.05,SSE,157,1.0,1.8,26,-99.99,,,-99.99,tws,2013-08-13 16:40:00,
2013-08-13 09:50:00,87.5,48.8,30.05,ENE,67,2.5,3.7,25,-99.99,,,-99.99,tws,2013-08-13 16:50:00,
2013-08-13 10:00:00,88.1,49.4,30.06,SE,135,3.4,4.9,25,-99.99,,,-99.99,tws,2013-08-13 17:00:00,
2013-08-13 10:20:00,89.2,49.1,30.06,South,180,3.5,6.0,24,-99.99,,,-99.99,tws,2013-08-13 17:20:00,
2013-08-13 10:30:00,89.6,47.6,30.06,SE,135,2.7,5.3,23,-99.99,,,-99.99,tws,2013-08-13 17:30:00,
2013-08-13 10:40:00,90.3,48.4,30.06,East,90,2.8,3.8,23,-99.99,,,-99.99,tws,2013-08-13 17:40:00,
2013-08-13 10:50:00,91.4,48.2,30.05,East,90,2.9,4.4,22,-99.99,,,-99.99,tws,2013-08-13 17:50:00,
2013-08-13 11:00:00,92.1,47.9,30.05,NW,315,2.6,4.4,21,-99.99,,,-99.99,tws,2013-08-13 18:00:00,
2013-08-13 11:10:00,92.2,47.5,30.05,SE,135,2.6,4.7,21,-99.99,,,-99.99,tws,2013-08-13 18:10:00,
2013-08-13 11:20:00,92.6,47.4,30.05,South,180,3.6,5.3,20,-99.99,,,-99.99,tws,2013-08-13 18:20:00,
2013-08-13 11:30:00,93.3,49.1,30.04,SE,135,2.2,3.6,21,-99.99,,,-99.99,tws,2013-08-13 18:30:00,
2013-08-13 11:40:00,93.9,48.0,30.03,SW,225,4.0,7.1,20,-99.99,,,-99.99,tws,2013-08-13 18:40:00,
2013-08-13 11:50:00,94.3,47.8,30.03,SE,135,4.0,7.9,20,-99.99,,,-99.99,tws,2013-08-13 18:50:00,
2013-08-13 12:00:00,94.9,47.0,30.01,SSE,157,4.9,6.2,19,-99.99,,,-99.99,tws,2013-08-13 19:00:00,
2013-08-13 12:10:00,95.4,46.4,30.01,South,180,6.4,8.6,18,-99.99,,,-99.99,tws,2013-08-13 19:10:00,
2013-08-13 12:20:00,95.8,46.2,30.01,SW,225,6.0,8.6,17,-99.99,,,-99.99,tws,2013-08-13 19:20:00,
2013-08-13 12:30:00,96.0,46.3,30.02,South,180,7.2,11.4,17,-99.99,,,-99.99,tws,2013-08-13 19:30:00,
2013-08-13 12:40:00,96.2,46.8,30.00,South,180,5.6,7.9,18,-99.99,,,-99.99,tws,2013-08-13 19:40:00,
2013-08-13 12:50:00,96.9,47.1,30.01,North,0,6.0,9.6,17,-99.99,,,-99.99,tws,2013-08-13 19:50:00,
2013-08-13 13:00:00,97.5,46.4,30.01,SW,225,4.4,6.7,17,-99.99,,,-99.99,tws,2013-08-13 20:00:00,
2013-08-13 13:10:00,98.0,46.1,30.00,SE,135,5.9,9.2,16,-99.99,,,-99.99,tws,2013-08-13 20:10:00,
2013-08-13 13:20:00,98.3,45.9,30.00,SSE,157,6.4,9.3,16,-99.99,,,-99.99,tws,2013-08-13 20:20:00,
2013-08-13 13:30:00,98.5,46.7,30.00,South,180,6.7,9.8,16,-99.99,,,-99.99,tws,2013-08-13 20:30:00,
2013-08-13 13:40:00,98.6,46.0,30.00,West,270,5.6,8.2,16,-99.99,,,-99.99,tws,2013-08-13 20:40:00,
2013-08-13 13:50:00,98.9,46.2,29.98,SE,135,8.0,9.5,16,-99.99,,,-99.99,tws,2013-08-13 20:50:00,
2013-08-13 14:00:00,99.2,46.9,29.99,South,180,6.0,11.7,16,-99.99,,,-99.99,tws,2013-08-13 21:00:00,
2013-08-13 14:10:00,99.3,46.6,29.98,SW,225,6.8,11.6,16,-99.99,,,-99.99,tws,2013-08-13 21:10:00,
2013-08-13 14:20:00,99.7,46.1,29.98,South,180,8.4,11.5,15,-99.99,,,-99.99,tws,2013-08-13 21:20:00,
2013-08-13 14:30:00,99.9,45.8,29.96,ESE,112,10.1,13.9,15,-99.99,,,-99.99,tws,2013-08-13 21:30:00,
2013-08-13 14:40:00,100.0,45.9,29.96,South,180,8.5,10.7,15,-99.99,,,-99.99,tws,2013-08-13 21:40:00,
2013-08-13 14:50:00,100.3,46.2,29.96,South,180,10.5,14.7,15,-99.99,,,-99.99,tws,2013-08-13 21:50:00,
2013-08-13 15:00:00,100.1,45.8,29.95,South,180,9.0,11.9,15,-99.99,,,-99.99,tws,2013-08-13 22:00:00,
2013-08-13 15:10:00,100.3,46.0,29.95,SSW,202,8.7,12.0,15,-99.99,,,-99.99,tws,2013-08-13 22:10:00,
2013-08-13 15:20:00,100.7,46.2,29.93,SSE,157,8.8,12.3,15,-99.99,,,-99.99,tws,2013-08-13 22:20:00,
2013-08-13 15:30:00,100.9,46.4,29.95,South,180,7.0,9.5,15,-99.99,,,-99.99,tws,2013-08-13 22:30:00,
2013-08-13 15:40:00,101.4,46.4,29.94,South,180,9.2,11.8,15,-99.99,,,-99.99,tws,2013-08-13 22:40:00,
2013-08-13 15:50:00,101.3,46.0,29.93,SSW,202,10.6,14.6,14,-99.99,,,-99.99,tws,2013-08-13 22:50:00,
2013-08-13 16:00:00,100.6,45.8,29.93,SW,225,9.9,11.3,15,-99.99,,,-99.99,tws,2013-08-13 23:00:00,
2013-08-13 16:10:00,100.1,45.8,29.92,South,180,9.2,13.3,15,-99.99,,,-99.99,tws,2013-08-13 23:10:00,
2013-08-13 16:20:00,100.1,46.1,29.91,South,180,8.7,11.4,15,-99.99,,,-99.99,tws,2013-08-13 23:20:00,
2013-08-13 16:30:00,100.1,46.2,29.91,South,180,9.4,10.8,15,-99.99,,,-99.99,tws,2013-08-13 23:30:00,
2013-08-13 16:40:00,100.0,45.7,29.91,South,180,9.4,11.6,15,-99.99,,,-99.99,tws,2013-08-13 23:40:00,
2013-08-13 16:50:00,99.5,45.5,29.90,South,180,11.1,13.4,15,-99.99,,,-99.99,tws,2013-08-13 23:50:00,
2013-08-13 17:00:00,99.0,45.3,29.90,SW,225,11.0,13.6,15,-99.99,,,-99.99,tws,2013-08-14 00:00:00,
2013-08-13 17:10:00,98.6,45.3,29.90,SW,225,11.5,13.5,15,-99.99,,,-99.99,tws,2013-08-14 00:10:00,
2013-08-13 17:20:00,98.3,44.8,29.89,South,180,9.3,11.6,15,-99.99,,,-99.99,tws,2013-08-14 00:20:00,
2013-08-13 17:30:00,98.0,45.1,29.89,SW,225,10.2,13.4,16,-99.99,,,-99.99,tws,2013-08-14 00:30:00,
2013-08-13 17:40:00,97.8,45.0,29.89,SW,225,9.6,11.3,16,-99.99,,,-99.99,tws,2013-08-14 00:40:00,
2013-08-13 17:50:00,97.4,44.9,29.89,South,180,8.4,10.4,16,-99.99,,,-99.99,tws,2013-08-14 00:50:00,
2013-08-13 18:00:00,97.1,44.6,29.90,SW,225,8.4,11.1,16,-99.99,,,-99.99,tws,2013-08-14 01:00:00,
2013-08-13 18:10:00,96.8,45.1,29.89,SW,225,7.0,9.5,16,-99.99,,,-99.99,tws,2013-08-14 01:10:00,
2013-08-13 18:20:00,96.6,45.2,29.89,West,270,6.2,7.6,16,-99.99,,,-99.99,tws,2013-08-14 01:20:00,
2013-08-13 18:30:00,96.2,45.3,29.90,SW,225,5.6,6.9,17,-99.99,,,-99.99,tws,2013-08-14 01:30:00,
2013-08-13 18:40:00,95.7,44.9,29.90,West,270,4.3,6.4,17,-99.99,,,-99.99,tws,2013-08-14 01:40:00,
2013-08-13 18:50:00,95.2,45.0,29.90,West,270,5.1,6.4,17,-99.99,,,-99.99,tws,2013-08-14 01:50:00,
2013-08-13 19:00:00,94.7,44.3,29.90,SW,225,4.4,5.8,17,-99.99,,,-99.99,tws,2013-08-14 02:00:00,
2013-08-13 19:10:00,94.2,44.8,29.91,South,180,3.3,5.0,17,-99.99,,,-99.99,tws,2013-08-14 02:10:00,
2013-08-13 19:20:00,93.7,44.5,29.91,North,0,2.6,4.9,17,-99.99,,,-99.99,tws,2013-08-14 02:20:00,
2013-08-13 19:30:00,93.1,46.0,29.91,SW,225,1.7,2.9,19,-99.99,,,-99.99,tws,2013-08-14 02:30:00,
2013-08-13 19:40:00,92.1,46.5,29.91,NW,315,1.6,2.4,20,-99.99,,,-99.99,tws,2013-08-14 02:40:00,
2013-08-13 19:50:00,91.0,45.9,29.91,NW,315,2.0,2.6,20,-99.99,,,-99.99,tws,2013-08-14 02:50:00,
2013-08-13 20:00:00,90.2,46.3,29.91,NNW,337,2.7,4.7,21,-99.99,,,-99.99,tws,2013-08-14 03:00:00,
2013-08-13 20:10:00,89.5,45.5,29.92,NW,315,2.9,4.2,21,-99.99,,,-99.99,tws,2013-08-14 03:10:00,
2013-08-13 20:20:00,89.1,45.3,29.94,NW,315,2.8,4.2,21,-99.99,,,-99.99,tws,2013-08-14 03:20:00,
2013-08-13 20:30:00,88.6,44.9,29.94,NW,315,3.5,4.8,21,-99.99,,,-99.99,tws,2013-08-14 03:30:00,
2013-08-13 20:40:00,88.4,44.5,29.94,NW,315,4.0,4.7,21,-99.99,,,-99.99,tws,2013-08-14 03:40:00,
2013-08-13 20:50:00,88.3,44.7,29.96,NNW,337,4.0,5.3,21,-99.99,,,-99.99,tws,2013-08-14 03:50:00,
2013-08-13 21:00:00,88.2,45.0,29.96,NNW,337,4.1,5.2,21,-99.99,,,-99.99,tws,2013-08-14 04:00:00,
2013-08-13 21:10:00,88.1,44.6,29.96,NW,315,3.8,4.2,21,-99.99,,,-99.99,tws,2013-08-14 04:10:00,
2013-08-13 21:20:00,87.9,44.4,29.96,WNW,292,5.0,6.5,21,-99.99,,,-99.99,tws,2013-08-14 04:20:00,
2013-08-13 21:30:00,87.8,44.5,29.97,NNW,337,4.4,4.9,21,-99.99,,,-99.99,tws,2013-08-14 04:30:00,
2013-08-13 21:40:00,87.5,44.5,29.96,NW,315,4.6,5.6,21,-99.99,,,-99.99,tws,2013-08-14 04:40:00,
2013-08-13 21:50:00,87.2,44.1,29.97,NW,315,4.7,5.3,21,-99.99,,,-99.99,tws,2013-08-14 04:50:00,
2013-08-13 22:00:00,86.8,44.3,29.98,NW,315,4.3,5.4,22,-99.99,,,-99.99,tws,2013-08-14 05:00:00,
2013-08-13 22:10:00,86.4,44.0,29.97,West,270,3.6,4.5,22,-99.99,,,-99.99,tws,2013-08-14 05:10:00,
2013-08-13 22:20:00,86.1,44.3,29.96,West,270,3.5,4.5,22,-99.99,,,-99.99,tws,2013-08-14 05:20:00,
2013-08-13 22:30:00,85.8,43.9,29.96,NW,315,3.5,5.0,22,-99.99,,,-99.99,tws,2013-08-14 05:30:00,
2013-08-13 22:40:00,85.5,44.0,29.98,WNW,292,3.7,4.1,22,-99.99,,,-99.99,tws,2013-08-14 05:40:00,
2013-08-13 22:50:00,85.3,44.2,29.96,NW,315,4.5,5.1,23,-99.99,,,-99.99,tws,2013-08-14 05:50:00,
2013-08-13 23:00:00,85.1,43.8,29.96,North,0,5.1,7.0,23,-99.99,,,-99.99,tws,2013-08-14 06:00:00,
2013-08-13 23:10:00,85.0,43.3,29.97,NW,315,5.0,5.7,22,-99.99,,,-99.99,tws,2013-08-14 06:10:00,
2013-08-13 23:20:00,85.0,43.3,29.97,NW,315,5.4,6.1,22,-99.99,,,-99.99,tws,2013-08-14 06:20:00,
2013-08-13 23:30:00,84.8,43.4,29.98,NNW,337,4.3,5.5,22,-99.99,,,-99.99,tws,2013-08-14 06:30:00,
2013-08-13 23:40:00,84.7,43.4,29.98,NNW,337,4.4,5.0,23,-99.99,,,-99.99,tws,2013-08-14 06:40:00,
2013-08-13 23:50:00,84.4,43.3,29.97,West,270,4.4,5.2,23,-99.99,,,-99.99,tws,2013-08-14 06:50:00,